Regional Weather Roundup
Issued by NWS

Home | Current Version | Previous Version | Text Only | Print | Product List | Glossary On
Versions: 1 2 3 4 5 6 7 8 9 10 11 12 13 14 15 16 17 18 19 20 21 22 23 24 25 26 27 28 29 30 31 32 33 34 35 36 37 38 39 40 41 42 43 44 45 46 47 48 49 50
000
ASUS43 KMPX 230501
RWRMN
WEATHER ROUNDUP FOR MINNESOTA
NATIONAL WEATHER SERVICE TWIN CITIES/CHANHASSEN MN
1200 AM CDT MON APR 23 2018


NOTE: "FAIR" INDICATES FEW OR NO CLOUDS BELOW 12,000 FEET WITH NO
SIGNIFICANT WEATHER AND/OR OBSTRUCTIONS TO VISIBILITY. N/A MEANS
CURRENT SKY AND/OR WEATHER CONDITIONS ARE NOT AVAILABLE.

MNZ060>063-068>070-230600-
   Twin Cities Metro

CITY           SKY/WX    TMP DP  RH WIND       PRES   REMARKS
TWIN CITIES    FAIR      52  37  56 CALM      30.25S
ST PAUL        FAIR      44  38  79 CALM      30.26R
BLAINE         FAIR      45  36  70 CALM      30.25R
LAKEVILLE      FAIR      37  36  93 CALM      30.25S
EDEN PRAIRIE   FAIR      48  35  60 W3        30.24S
SOUTH ST PAUL  FAIR      45  35  69 CALM      30.25R
LAKE ELMO      FAIR      41  36  81 CALM      30.25S
$$
MNZ001>005-007-008-013>017-022>024-027-028-230600-
   Northwest Minnesota

CITY           SKY/WX    TMP DP  RH WIND       PRES   REMARKS
BEMIDJI        FAIR      48  35  60 SW7       30.18R
HALLOCK        FAIR      48  45  87 S8        30.08S
ROSEAU         MOCLDY    54  45  71 SW14      30.10S
WARROAD        FAIR      54  43  66 SW13G20   30.10S
THIEF RVR FALL MOCLDY    50  39  66 S15       30.14
CROOKSTON      FAIR      50  41  71 S16       30.14S
FOSSTON        FAIR      46  36  66 S14       30.17S
DETROIT LAKES  FAIR      46  36  66 S9        30.20S
MOORHEAD       FAIR      46  37  71 S12       30.19S
PARK RAPIDS    FAIR      45  36  70 SW9       30.20S
MAHNOMEN       FAIR      45  36  72 S13       30.17S
$$
MNZ006-009>011-018-025>026-230600-
   North Central Minnesota

CITY           SKY/WX    TMP DP  RH WIND       PRES   REMARKS
BAUDETTE       MOCLDY    52  39  61 SW13      30.11S
FLAG ISLAND    FAIR      41  36  81 S6        30.07F
INTL FALLS     FAIR      46  33  60 S7        30.13F
WASKISH        FAIR      52  36  54 S7        30.15S
BIG FORK       FAIR      41  30  65 S5        30.18S
LONGVILLE      FAIR      48  36  61 SW3       30.20F
GRAND RAPIDS   FAIR      45  31  58 S8        30.22S
CRANE LAKE     FAIR      39  28  65 S3        30.18S
ORR            FAIR      46  27  46 S5        30.16S
COOK           FAIR      48  30  49 S5        30.19S
WALKER         FAIR      46  34  62 SW6       30.19S
$$
MNZ012-019>021-037-230600-
   Northeast Minnesota

CITY           SKY/WX    TMP DP  RH WIND       PRES   REMARKS
DULUTH         FAIR      45  27  49 SW3       30.22S
ELY            FAIR      46  27  46 S3        30.19S
HIBBING        FAIR      35  26  69 S3        30.19F
EVELETH        FAIR      34  26  71 CALM      30.21F
DULUTH HARBOR  FAIR      37  30  75 CALM      30.24S
TWO HARBORS    FAIR      34  25  69 CALM      30.21S
SILVER BAY     FAIR      30  23  74 CALM      30.21S
GRAND MARAIS     N/A     32  23  69 CALM      30.23F
G MARAIS ARPRT FAIR      30  19  64 CALM      30.22S
$$
MNZ029>031-032-039>041-046>048-054>057-064-230600-
   West Central Minnesota

CITY           SKY/WX    TMP DP  RH WIND       PRES   REMARKS
FERGUS FALLS   FAIR      43  36  75 S7        30.20S
WHEATON        CLEAR     45  36  70 S9        30.23S
MORRIS         CLEAR     41  37  87 S7        30.21F
ALEXANDRIA     FAIR      46  37  71 S7        30.23F
ELBOW LAKE     FAIR      38  35  89 S8        30.22S
WADENA         FAIR      43  36  75 CALM      30.22S
GLENWOOD       FAIR      43  37  81 SW3       30.24S
APPLETON       CLEAR     45  36  70 SE8       30.22F
BENSON         CLEAR     41  37  87 S8        30.24F
ORTONVILLE     CLEAR     39  36  87 S3        30.21F
MADISON        CLEAR     43  37  81 S6        30.23S
WILLMAR        FAIR      39  37  93 CALM      30.27R
$$
MNZ033>034-036-042>043-049>051-058-059-230600-
   Central Minnesota

CITY           SKY/WX    TMP DP  RH WIND       PRES   REMARKS
ST CLOUD       FAIR      40  37  89 CALM      30.24S
SAUK CENTRE    FAIR      40  36  86 CALM      30.24S
PAYNESVILLE    FAIR      37  37  97 CALM      30.24F
AITKIN         FAIR      39  28  65 SW3       30.21S
PINE RIVER     FAIR      37  30  75 CALM      30.25S
BRAINERD       FAIR      39  29  67 CALM      30.23S
STAPLES        FAIR      45  36  70 CALM      30.22F
LONG PRAIRIE   FAIR      39  36  87 SW3       30.24S
LITTLE FALLS   FAIR      37  30  75 CALM      30.24S
LITCHFIELD     FAIR      45  43  93 CALM      30.25S
BUFFALO        FAIR      41  36  83 CALM      30.26R
MAPLE LAKE     FAIR      38  36  93 CALM      30.25S
HUTCHINSON     FAIR      41  41  99 CALM      30.25F FOG
$$
MNZ037-044-045-052-053-230600-
   East Central Minnesota

CITY           SKY/WX    TMP DP  RH WIND       PRES   REMARKS
PRINCETON      FAIR      37  32  81 CALM      30.25S
MORA           FAIR      34  30  86 CALM      30.25S
CAMBRIDGE      FAIR      39  28  65 CALM      30.25S
RUSH CITY      FAIR      38  33  80 CALM      30.24S
MOOSE LAKE     FAIR      34  28  80 CALM      30.21S
HINCKLEY       FAIR      36  32  87 CALM      30.24S
CLOQUET        FAIR      39  25  56 CALM      30.22F
MCGREGOR       FAIR      43  32  65 CALM      30.23R
$$
MNZ071>073-080-081-089-090-097-098-230600-
   Southwest Minnesota

CITY           SKY/WX    TMP DP  RH WIND       PRES   REMARKS
MONTEVIDEO     CLEAR     39  36  87 CALM      30.24F
GRANITE FALLS  CLEAR     43  40  91 S3        30.25F
CANBY          CLEAR     40  37  89 S3        30.24S
MARSHALL       CLEAR     38  35  89 CALM      30.24F
REDWOOD FALLS  CLEAR     43  40  89 CALM      30.23F
OLIVIA         CLEAR     41  37  87 CALM      30.23F
PIPESTONE      CLEAR    N/A N/A N/A SE7       30.22F
WINDOM         CLEAR     37  25  60 CALM      30.23F
WORTHINGTON    CLEAR     39  35  86 CALM      30.24S
JACKSON        CLEAR     37  32  81 CALM      30.23F
TRACY          CLEAR     38  35  89 S3        30.23F
SLAYTON        CLEAR     37  34  90 CALM      30.24F
$$
MNZ065>067-074>077-082>085-091>093-230600-
   South Central Minnesota

CITY           SKY/WX    TMP DP  RH WIND       PRES   REMARKS
MANKATO        FAIR      44  37  76 NE6       30.24F
NEW ULM        CLEAR     46  39  76 CALM      30.24F
ST JAMES       CLEAR     37  36  93 CALM      30.25S
FAIRMONT       CLEAR     39  37  92 N5        30.23F
GLENCOE        FAIR      43  43 100 CALM      30.24F
OWATONNA       FAIR      41  37  87 CALM      30.24F
WASECA         FAIR      39  36  87 CALM      30.25F
ALBERT LEA     FAIR      39  37  93 CALM      30.24S
$$
MNZ078>079-086>088-094>096-230600-
   Southeast Minnesota

CITY           SKY/WX    TMP DP  RH WIND       PRES   REMARKS
ROCHESTER      FAIR      48  32  53 E6        30.24F
RED WING       FAIR      37  30  75 CALM      30.24S
STANTON        FAIR      38  35  87 SW3       30.24S
DODGE CENTER   FAIR      45  34  65 CALM      30.25S
WINONA         FAIR      41  34  75 CALM      30.24S
AUSTIN         FAIR      39  36  87 CALM      30.24S
PRESTON        FAIR      47  29  48 E6        30.25F
$$
ABBREVIATIONS USED IN REMARKS
   TC - TEMPERATURES IN CELSIUS
  WCI - WIND CHILL INDEX
   HX - HEAT INDEX
  VSB - VISIBILITY
$$




USA.gov is the U.S. government's official web portal to all federal, state and local government web resources and services.